Location: Góry Miechowskie
(50.3599°N, 20.1803°E)
Time: 19:21:30
(UTC+00:00)

Meteor 1-11 - Pass Details

Date: 16 September 2024
Orbit: 841 x 884 km, 81.2° (Epoch: 09 October)

Event Time Altitude Azimuth Distance (km) Brightness Sun altitude
Rises 23:21:57 0° 342° (NNW) 3,490 8.1 -36.5°
Reaches altitude 10° 23:24:32 10° 335° (NNW) 2,551 7.2 -36.4°
Enters shadow 23:26:53 23° 320° (NW) 1,796 6.1 -36.3°
